| time (UTC) | temp C | wind direction | speed KPH | gust KPH | rain 1hr cm | rain 24hr cm | rain mn cm | humidity % | barometer mb |
| 20260503224506 | 15 | 276 | 11.3 | 29.0 | 0.00 | 0.00 | 0.00 | 42 | 1012.5 |
| 20260503223015 | 15 | 228 | 12.9 | 27.4 | 0.00 | 0.00 | 0.00 | 41 | 1012.6 |
| 20260503221526 | 16 | 207 | 19.3 | 29.0 | 0.00 | 0.00 | 0.00 | 41 | 1012.7 |
| 20260503220004 | 15 | 241 | 16.1 | 33.8 | 0.00 | 0.00 | 0.00 | 41 | 1012.7 |
| 20260503214512 | 15 | 238 | 16.1 | 27.4 | 0.00 | 0.00 | 0.00 | 41 | 1012.7 |
| 20260503213008 | 15 | 238 | 16.1 | 25.7 | 0.00 | 0.00 | 0.00 | 41 | 1012.8 |
| 20260503211507 | 15 | 240 | 9.7 | 25.7 | 0.00 | 0.00 | 0.00 | 42 | 1012.8 |
| 20260503210022 | 15 | 244 | 12.9 | 30.6 | 0.00 | 0.00 | 0.00 | 44 | 1013.0 |
| 20260503204505 | 15 | 276 | 17.7 | 25.7 | 0.00 | 0.00 | 0.00 | 43 | 1012.9 |
| 20260503203011 | 15 | 186 | 16.1 | 27.4 | 0.00 | 0.00 | 0.00 | 43 | 1013.0 |
| 20260503201516 | 16 | 205 | 8.0 | 27.4 | 0.00 | 0.00 | 0.00 | 44 | 1013.1 |
| 20260503200004 | 15 | 267 | 19.3 | 35.4 | 0.00 | 0.00 | 0.00 | 43 | 1013.3 |
| 20260503194505 | 15 | 220 | 16.1 | 33.8 | 0.00 | 0.00 | 0.00 | 43 | 1013.4 |
| 20260503193005 | 16 | 221 | 14.5 | 35.4 | 0.00 | 0.00 | 0.00 | 43 | 1013.8 |
| 20260503191504 | 16 | 265 | 16.1 | 29.0 | 0.00 | 0.00 | 0.00 | 43 | 1014.0 |
| 20260503190004 | 15 | 276 | 16.1 | 27.4 | 0.00 | 0.00 | 0.00 | 43 | 1014.2 |
| 20260503184508 | 15 | 274 | 14.5 | 27.4 | 0.00 | 0.00 | 0.00 | 44 | 1014.5 |
| 20260503183009 | 15 | 280 | 11.3 | 22.5 | 0.00 | 0.00 | 0.00 | 44 | 1014.6 |
| 20260503181510 | 15 | 217 | 14.5 | 25.7 | 0.00 | 0.00 | 0.00 | 49 | 1014.7 |
| 20260503180011 | 15 | 248 | 17.7 | 29.0 | 0.00 | 0.00 | 0.00 | 49 | 1014.8 |
| 20260503174505 | 15 | 295 | 14.5 | 25.7 | 0.00 | 0.00 | 0.00 | 51 | 1015.1 |
| 20260503173005 | 15 | 274 | 9.7 | 25.7 | 0.00 | 0.00 | 0.00 | 52 | 1015.2 |
| 20260503171504 | 15 | 246 | 8.0 | 27.4 | 0.00 | 0.00 | 0.00 | 51 | 1015.5 |
| 20260503081520 | 1 | 227 | 0.0 | 0.0 | 0.00 | 0.30 | 0.00 | 89 | 1016.7 |
| 20260503071518 | 2 | 235 | 0.0 | 1.6 | 0.00 | 0.33 | 0.00 | 88 | 1016.7 |
| 20260503054521 | 2 | 214 | 0.0 | 0.0 | 0.00 | 0.33 | 0.00 | 89 | 1017.0 |
| 20260503053023 | 2 | 203 | 0.0 | 0.0 | 0.00 | 0.33 | 0.00 | 88 | 1017.1 |
| 20260503051521 | 2 | 203 | 0.0 | 0.0 | 0.00 | 0.33 | 0.00 | 87 | 1017.1 |
| 20260503050022 | 2 | 203 | 0.0 | 0.0 | 0.00 | 0.33 | 0.00 | 83 | 1017.1 |
| 20260503044518 | 3 | 203 | 0.0 | 0.0 | 0.00 | 0.33 | 0.00 | 82 | 1017.2 |
| 20260503043022 | 3 | 203 | 0.0 | 0.0 | 0.00 | 0.33 | 0.00 | 80 | 1017.2 |
| 20260503041505 | 4 | 234 | 0.0 | 0.0 | 0.00 | 0.33 | 0.00 | 78 | 1017.2 |
| 20260503040006 | 5 | 210 | 1.6 | 6.4 | 0.00 | 0.33 | 0.00 | 78 | 1017.2 |
| 20260503034504 | 5 | 245 | 0.0 | 3.2 | 0.00 | 0.33 | 0.33 | 78 | 1017.4 |
| 20260503033006 | 5 | 231 | 0.0 | 4.8 | 0.00 | 0.33 | 0.33 | 77 | 1017.5 |
| 20260503031506 | 5 | 227 | 0.0 | 4.8 | 0.00 | 0.36 | 0.33 | 77 | 1017.5 |
| 20260503030007 | 5 | 228 | 1.6 | 4.8 | 0.00 | 0.38 | 0.33 | 76 | 1017.4 |
| 20260503024508 | 5 | 248 | 0.0 | 4.8 | 0.00 | 0.51 | 0.33 | 76 | 1017.6 |
| 20260503023007 | 5 | 235 | 1.6 | 4.8 | 0.00 | 0.56 | 0.33 | 75 | 1017.8 |
| 20260503021513 | 5 | 239 | 0.0 | 4.8 | 0.00 | 0.56 | 0.33 | 75 | 1017.7 |
| 20260503020005 | 5 | 237 | 0.0 | 4.8 | 0.00 | 0.56 | 0.33 | 74 | 1017.7 |
| 20260503014507 | 5 | 232 | 0.0 | 3.2 | 0.00 | 0.56 | 0.33 | 76 | 1017.6 |
| 20260503013009 | 5 | 223 | 0.0 | 1.6 | 0.00 | 0.56 | 0.33 | 77 | 1017.6 |
| 20260503011512 | 5 | 196 | 0.0 | 0.0 | 0.00 | 0.56 | 0.33 | 77 | 1017.6 |
| 20260503010008 | 5 | 193 | 0.0 | 0.0 | 0.00 | 0.56 | 0.33 | 75 | 1017.5 |
| 20260503004510 | 5 | 193 | 0.0 | 0.0 | 0.00 | 0.56 | 0.33 | 73 | 1017.4 |
| 20260503003003 | 5 | 193 | 0.0 | 1.6 | 0.00 | 0.56 | 0.33 | 71 | 1017.4 |
| 20260503001512 | 6 | 242 | 0.0 | 1.6 | 0.00 | 0.56 | 0.33 | 69 | 1017.4 |
| 20260503000015 | 6 | 246 | 0.0 | 1.6 | 0.00 | 0.56 | 0.33 | 66 | 1017.3 |
| 20260502234526 | 6 | 283 | 0.0 | 3.2 | 0.00 | 0.56 | 0.33 | 64 | 1017.2 |
| 20260502233012 | 6 | 293 | 3.2 | 9.7 | 0.00 | 0.56 | 0.33 | 61 | 1017.2 |
| 20260502231507 | 6 | 291 | 4.8 | 11.3 | 0.00 | 0.56 | 0.33 | 60 | 1017.2 |
| 20260502230014 | 6 | 290 | 6.4 | 12.9 | 0.00 | 0.56 | 0.33 | 59 | 1017.3 |